User: anonymous
Location: Oshawa
(43.9000°N, 78.8670°W)
Time: 05:33:15
(UTC-04:00)
Language:

CARTOSAT-1 - Orbit

View from above orbital plane
View from above orbital plane
View from above satellite
View from above satellite

Ground track
Ground track

The orbit data is extracted from the following two-line orbital elements,

1 28649U 05017A   14259.79649019 -.00001254  00000-0 -14636-3 0  6004
2 28649 097.8269 332.0085 0002696 061.5815 298.5710 14.83456070507071
Epoch (UTC): 16 September 2014 19:06:56
Eccentricity: 0.0002696
inclination: 97.8269°
perigee height: 616 km
apogee height: 620 km
right ascension of ascending node: 332.0085°
argument of perigee: 61.5815°
revolutions per day: 14.83456070
mean anomaly at epoch: 298.5710°
orbit number at epoch: 50707

The dashed part of the orbit path shows where the satellite is in the earth's shadow,  

DLR